Home > Weather > Fairbanks > Past weeks

Flag for USA Past Weather in Fairbanks, Alaska, USA — Yesterday and Last 2 Weeks

Now
56 °F

Light rain. Mostly cloudy.


Feels Like: 53 °F
Forecast: 53 / 57 °F
Wind: 14 mph from Southwest

Location: Wainwright U. S. Army Airfield

Current Time: Jul 30, 2016 at 1:32:28 AM

Latest Report: Jul 30, 2016 at 12:58 AM


Visibility: 7 mi

Pressure: 29.93 "Hg

Humidity: 94%

Dew Point: 54 °F

Location of FairbanksLocation

Past Weather in Fairbanks — Graph

°F

Fairbanks Temperature Yesterday

Maximum temperature yesterday: 59 °F (at 11:58 AM)
Minimum temperature yesterday: 55 °F (at 2:58 AM)
Average temperature yesterday: 57 °F

High & Low Weather Summary for the Past Weeks

 TemperatureHumidityPressure
High83 °F (Jul 15, 6:58 PM)100% (Jul 20, 10:48 PM)30.23 "Hg (Jul 20, 10:48 PM)
Low48 °F (Jul 23, 4:58 AM)36% (Jul 27, 2:58 PM)29.61 "Hg (Jul 23, 4:58 PM)
Average60 °F78%29.89 "Hg
* Reported Jul 14 11:58 PM — Jul 29 11:58 PM, Fairbanks, Weather by CustomWeather, © 2016

Note: Actual official high and low records may vary slightly from our data, if they occured in-between our weather recording intervals... More about our weather records

Advertising

Fairbanks Weather History for the Previous 24 Hours

Scroll right to see more
 ConditionsComfort  
Time TempWeatherWind HumidityBarometerVisibility
11:58 PM
Fri, Jul 29
56 °FLight rain. Fog.14 mph94%29.92 "Hg6 mi
10:58 PM56 °FLight rain. Fog.10 mph94%29.92 "Hg4 mi
9:58 PM56 °FLight rain. Fog.16 mph93%29.91 "Hg4 mi
8:58 PM56 °FLight rain. Fog.13 mph94%29.91 "Hg3 mi
7:58 PM57 °FLight rain. Fog.10 mph94%29.91 "Hg5 mi
7:03 PM57 °FLight rain. Mostly cloudy.14 mph88%29.92 "Hg9 mi
5:58 PM56 °FLight rain. Mostly cloudy.14 mph92%29.93 "Hg7 mi
4:58 PM56 °FLight rain. Fog.17 mph91%29.93 "Hg5 mi
3:58 PM56 °FLight rain. Fog.16 mph90%29.93 "Hg5 mi
3:03 PM57 °FLight rain. Fog.15 mph88%29.92 "Hg5 mi
2:58 PM56 °FLight rain. Mostly cloudy.17 mph88%29.92 "Hg4 mi
1:58 PM58 °FLight rain. Fog.16 mph88%29.92 "Hg6 mi
12:58 PM59 °FLight rain. More clouds than sun.14 mph81%29.92 "Hg7 mi
11:58 AM59 °FLight rain. Mostly cloudy.13 mph79%29.91 "Hg10 mi
10:58 AM58 °FMostly cloudy.10 mph87%29.91 "Hg9 mi
9:58 AM57 °FLight rain. Fog.10 mph90%29.90 "Hg6 mi
8:58 AM57 °FLight rain. Fog.12 mph90%29.90 "Hg6 mi
7:58 AM57 °FLight rain. Overcast.6 mph90%29.89 "Hg6 mi
6:58 AM57 °FMore clouds than sun.9 mph87%29.89 "Hg7 mi
6:03 AM57 °FLight rain. Fog.7 mph88%29.88 "Hg2 mi
4:58 AM58 °FMostly cloudy.8 mph83%29.86 "Hg8 mi
3:58 AM55 °FMostly cloudy.3 mph95%29.86 "Hg10 mi
2:58 AM55 °FOvercast.3 mph95%29.86 "Hg9 mi
1:58 AM57 °FPassing clouds.3 mph92%29.87 "Hg10 mi
Weather by CustomWeather, © 2016

See weather overviewHow to use our weather pages